TimeCST,TemperatureF,Dew PointF,Humidity,Sea Level PressureIn,VisibilityMPH,Wind Direction,Wind SpeedMPH,Gust SpeedMPH,PrecipitationIn,Events,Conditions,WindDirDegrees,DateUTC
12:15 AM,28.4,26.6,93,30.12,8.0,Calm,Calm,-,N/A,,Overcast,0,2013-02-26 06:15:00
12:35 AM,26.6,24.8,93,30.11,7.0,Calm,Calm,-,N/A,,Overcast,0,2013-02-26 06:35:00
12:55 AM,26.6,24.8,93,30.11,7.0,Calm,Calm,-,N/A,,Mostly Cloudy,0,2013-02-26 06:55:00
1:15 AM,26.6,24.8,93,30.11,6.0,Calm,Calm,-,N/A,,Scattered Clouds,0,2013-02-26 07:15:00
1:35 AM,24.8,24.8,100,30.10,5.0,Calm,Calm,-,N/A,,Clear,0,2013-02-26 07:35:00
1:55 AM,24.8,24.8,100,30.10,5.0,NE,3.5,-,N/A,,Partly Cloudy,50,2013-02-26 07:55:00
2:15 AM,26.6,24.8,93,30.10,4.0,ENE,3.5,-,N/A,,Scattered Clouds,60,2013-02-26 08:15:00
2:35 AM,24.8,24.8,100,30.09,4.0,ENE,3.5,-,N/A,,Overcast,70,2013-02-26 08:35:00
2:55 AM,28.4,26.6,93,30.08,3.0,ENE,3.5,-,N/A,,Overcast,70,2013-02-26 08:55:00
3:15 AM,26.6,26.6,100,30.08,4.0,NE,3.5,-,N/A,,Overcast,40,2013-02-26 09:15:00
3:35 AM,26.6,26.6,100,30.07,5.0,NE,5.8,-,N/A,,Overcast,40,2013-02-26 09:35:00
3:55 AM,28.4,26.6,93,30.07,5.0,ENE,5.8,-,N/A,,Overcast,60,2013-02-26 09:55:00
4:15 AM,30.2,26.6,86,30.07,7.0,ENE,4.6,-,N/A,,Overcast,70,2013-02-26 10:15:00
4:35 AM,28.4,26.6,93,30.06,7.0,ENE,5.8,-,N/A,,Overcast,70,2013-02-26 10:35:00
4:55 AM,26.6,26.6,100,30.05,8.0,ENE,6.9,-,N/A,,Scattered Clouds,70,2013-02-26 10:55:00
5:15 AM,28.4,26.6,93,30.05,10.0,East,9.2,-,N/A,,Clear,80,2013-02-26 11:15:00
5:35 AM,28.4,26.6,93,30.05,10.0,East,8.1,-,N/A,,Mostly Cloudy,90,2013-02-26 11:35:00
5:55 AM,28.4,26.6,93,30.06,10.0,East,6.9,-,N/A,,Overcast,80,2013-02-26 11:55:00
6:15 AM,28.4,26.6,93,30.05,10.0,ENE,6.9,-,N/A,,Overcast,60,2013-02-26 12:15:00
6:35 AM,28.4,26.6,93,30.05,10.0,ENE,8.1,-,N/A,,Overcast,60,2013-02-26 12:35:00
6:55 AM,28.4,26.6,93,30.04,10.0,ENE,9.2,-,N/A,,Overcast,60,2013-02-26 12:55:00
7:15 AM,30.2,26.6,86,30.04,10.0,ENE,10.4,-,N/A,,Overcast,70,2013-02-26 13:15:00
7:35 AM,30.2,26.6,86,30.04,10.0,East,10.4,-,N/A,,Overcast,80,2013-02-26 13:35:00
7:55 AM,30.2,26.6,86,30.04,10.0,East,10.4,-,N/A,,Overcast,80,2013-02-26 13:55:00
8:35 AM,32.0,26.6,80,30.04,10.0,East,11.5,-,N/A,,Overcast,80,2013-02-26 14:35:00
8:55 AM,32.0,26.6,80,30.04,10.0,East,13.8,18.4,N/A,,Overcast,90,2013-02-26 14:55:00
9:15 AM,32.0,26.6,80,30.03,10.0,East,13.8,-,N/A,,Overcast,90,2013-02-26 15:15:00
9:35 AM,33.8,26.6,75,30.03,10.0,East,11.5,18.4,N/A,,Overcast,90,2013-02-26 15:35:00
9:55 AM,33.8,26.6,75,30.02,10.0,ENE,16.1,-,N/A,,Overcast,70,2013-02-26 15:55:00
10:15 AM,33.8,26.6,75,30.02,10.0,East,16.1,-,N/A,,Overcast,80,2013-02-26 16:15:00
10:35 AM,33.8,26.6,75,30.01,10.0,East,13.8,-,N/A,,Mostly Cloudy,80,2013-02-26 16:35:00
10:55 AM,33.8,24.8,70,29.99,10.0,ENE,17.3,23.0,N/A,,Mostly Cloudy,70,2013-02-26 16:55:00
11:15 AM,33.8,24.8,70,29.98,10.0,ENE,21.9,28.8,N/A,,Mostly Cloudy,70,2013-02-26 17:15:00
11:35 AM,33.8,26.6,75,29.98,10.0,ENE,21.9,28.8,N/A,,Overcast,70,2013-02-26 17:35:00
11:55 AM,33.8,24.8,70,29.97,10.0,ENE,19.6,27.6,N/A,,Overcast,70,2013-02-26 17:55:00
12:15 PM,33.8,24.8,70,29.95,10.0,NE,20.7,25.3,N/A,,Overcast,50,2013-02-26 18:15:00
12:35 PM,33.8,26.6,75,29.94,10.0,ENE,18.4,25.3,N/A,,Overcast,60,2013-02-26 18:35:00
12:55 PM,33.8,26.6,75,29.92,10.0,NE,21.9,32.2,N/A,,Overcast,50,2013-02-26 18:55:00
1:15 PM,33.8,23.0,65,29.91,10.0,NE,26.5,35.7,N/A,,Overcast,50,2013-02-26 19:15:00
1:35 PM,33.8,26.6,75,29.91,10.0,ENE,25.3,39.1,N/A,,Overcast,70,2013-02-26 19:35:00
1:55 PM,32.0,26.6,80,29.91,10.0,ENE,25.3,36.8,N/A,,Overcast,60,2013-02-26 19:55:00
2:15 PM,32.0,26.6,80,29.90,10.0,ENE,26.5,35.7,N/A,,Overcast,60,2013-02-26 20:15:00
2:35 PM,32.0,26.6,80,29.90,10.0,ENE,27.6,34.5,N/A,,Overcast,60,2013-02-26 20:35:00
2:55 PM,32.0,24.8,75,29.91,10.0,ENE,26.5,33.4,N/A,,Overcast,60,2013-02-26 20:55:00
3:15 PM,32.0,26.6,80,29.90,10.0,ENE,31.1,40.3,N/A,,Overcast,70,2013-02-26 21:15:00
3:35 PM,30.2,24.8,80,29.90,10.0,ENE,25.3,34.5,N/A,,Overcast,60,2013-02-26 21:35:00
3:55 PM,30.2,26.6,86,29.90,10.0,ENE,23.0,31.1,N/A,,Overcast,70,2013-02-26 21:55:00
4:15 PM,30.2,24.8,80,29.90,10.0,ENE,25.3,32.2,N/A,,Overcast,70,2013-02-26 22:15:00
4:35 PM,30.2,24.8,80,29.89,10.0,ENE,23.0,34.5,N/A,,Overcast,60,2013-02-26 22:35:00
4:55 PM,30.2,24.8,80,29.90,10.0,ENE,23.0,33.4,N/A,,Overcast,70,2013-02-26 22:55:00
5:15 PM,30.2,24.8,80,29.89,10.0,ENE,24.2,31.1,N/A,,Overcast,60,2013-02-26 23:15:00
5:35 PM,30.2,24.8,80,29.89,10.0,ENE,27.6,38.0,N/A,,Overcast,60,2013-02-26 23:35:00
5:55 PM,30.2,24.8,80,29.89,10.0,NE,23.0,35.7,N/A,,Overcast,50,2013-02-26 23:55:00
6:15 PM,30.2,24.8,80,29.89,10.0,ENE,26.5,35.7,N/A,,Overcast,60,2013-02-27 00:15:00
6:35 PM,30.2,24.8,80,29.89,10.0,NE,27.6,36.8,N/A,,Overcast,50,2013-02-27 00:35:00
6:55 PM,30.2,24.8,80,29.89,10.0,ENE,24.2,33.4,N/A,,Overcast,60,2013-02-27 00:55:00
7:15 PM,30.2,24.8,80,29.89,10.0,ENE,20.7,31.1,N/A,,Overcast,60,2013-02-27 01:15:00
7:35 PM,30.2,24.8,80,29.88,10.0,ENE,25.3,33.4,N/A,,Overcast,60,2013-02-27 01:35:00
7:55 PM,30.2,24.8,80,29.88,10.0,ENE,21.9,29.9,N/A,,Overcast,60,2013-02-27 01:55:00
8:15 PM,30.2,24.8,80,29.87,10.0,ENE,21.9,27.6,N/A,,Overcast,60,2013-02-27 02:15:00
8:35 PM,30.2,24.8,80,29.86,10.0,ENE,21.9,29.9,N/A,,Overcast,60,2013-02-27 02:35:00
8:55 PM,30.2,24.8,80,29.86,10.0,NE,21.9,28.8,N/A,,Overcast,50,2013-02-27 02:55:00
9:15 PM,30.2,24.8,80,29.85,10.0,NE,21.9,28.8,N/A,,Overcast,50,2013-02-27 03:15:00
9:35 PM,30.2,24.8,80,29.84,10.0,NE,24.2,32.2,N/A,,Overcast,50,2013-02-27 03:35:00
9:55 PM,30.2,23.0,75,29.83,10.0,NE,24.2,31.1,N/A,,Overcast,50,2013-02-27 03:55:00
10:15 PM,30.2,21.2,69,29.82,10.0,NE,23.0,26.5,N/A,,Overcast,50,2013-02-27 04:15:00
10:35 PM,30.2,24.8,80,29.82,10.0,NE,20.7,29.9,N/A,,Overcast,50,2013-02-27 04:35:00
10:55 PM,30.2,24.8,80,29.81,10.0,NE,18.4,25.3,N/A,,Overcast,40,2013-02-27 04:55:00
11:15 PM,30.2,23.0,75,29.80,10.0,NE,26.5,31.1,N/A,,Overcast,50,2013-02-27 05:15:00
11:35 PM,30.2,23.0,75,29.79,10.0,NE,16.1,27.6,N/A,,Overcast,40,2013-02-27 05:35:00
11:55 PM,30.2,21.2,69,29.78,10.0,NNE,17.3,27.6,N/A,,Overcast,30,2013-02-27 05:55:00